KOFP

Details ICAO KOFP
Name HANOVER CO MUNI
Region United States
Timezone America/New_York (UTC-4.0)
Plans Departing 3
Arriving 3
Stats Elevation 208 ft / 63 m (AMSL)
Location 37.708939° -77.436641°
Runways 1
Magnetic Variation 10.342° W
Sunrise 2017-05-27 09:53:14 UTC / 2017-05-27 05:53:14 Local
Sunset 2017-05-28 00:23:34 UTC / 2017-05-27 20:23:34 Local
Advertisement - Login to hide

Runways

ID Width Length Bearing (true) Bearing (mag) Surface Threshold Offset Overrun Length
16 100 ft / 30 m 5,406 ft / 1,648 m 149.81° 160.15° Asphalt 0 ft / 0 m 0 ft / 0 m
34 100 ft / 30 m 5,406 ft / 1,648 m 329.81° 340.15° Asphalt 0 ft / 0 m 0 ft / 0 m

Approach Navaids

Runway Type Ident Frequency Range Bearing (true) Bearing (mag) Slope Elevation
16 Localiser IOFP 109.70 MHz 18 nm / 33 km 150.00° 160.34° - 208 ft / 63 m (AMSL)
16 DME IOFP 109.70 MHz 18 nm / 33 km - - - 208 ft / 63 m (AMSL)

Map

Weather


0- 5 10 15 20 25 30 35+ Temperature / ° C

Clouds and Precipitation
Forecast for 2017-05-27 18:00 UTC. Updated 16 minutes ago

Ground ~20,000 ft ~40,000 ft Winds

METAR

KOFP 271254Z AUTO 13004KT 10SM CLR 21/14 A2993 RMK AO2 SLP133 T02060139

TAF

Not found

Frequencies

Recorded 119.02 MHz ASOS
Clearance 125.40 MHz POTOMAC CLNC DEL
Departure 134.70 MHz POTOMAC DEP
Unicom 122.70 MHz CTAF/UNICOM
Approach 134.70 MHz POTOMAC APP
Warning: Do not use this data for real-world aviation or navigation. No guarantee of current accuracy is given.